Weather History for Darlington, SC

Change the Weather History Date:

Tuesday, September 4, 2012

  Actual Average (KFLO) Record (KFLO)
Temperature  
Mean Temperature 80 °F 78 °F  
Max Temperature 87 °F 87 °F 99 °F (1954)
Min Temperature 73 °F 68 °F 55 °F (1997)
Degree Days  
Heating Degree Days 0 0  
Month to date heating degree days 0  
Since 1 July heating degree days 0  
Cooling Degree Days 15 12  
Month to date cooling degree days 51  
Year to date cooling degree days 1721  
Growing Degree Days 30 (Base 50)    
Moisture  
Dew Point 71 °F    
Average Humidity 79    
Maximum Humidity 94    
Minimum Humidity 55    
Precipitation  
Precipitation 0.00 in 0.13 in 4.68 in (1957)
Month to date precipitation 0.55  
Year to date precipitation 31.03  
Sea Level Pressure  
Sea Level Pressure 29.99 in    
Wind  
Wind Speed 6 mph (South)    
Max Wind Speed 15 mph    
Max Gust Speed 18 mph    
Visibility 9 miles    
Events      
T = Trace of Precipitation, MM = Missing Value Source: NWS Daily Summary

Daily Weather History Graph

Daily Weather History Graph

Search for Another Location

Airport:

Trip Planner

Search our weather history database for the weather conditions in past years. The results will help you decide how hot, cold, wet, or windy it might be!

Date:

Astronomy

Sep. 04, 2012 Rise Set
Actual Time 6:55 AM EDT 7:40 PM EDT
Civil Twilight 6:29 AM EDT 8:06 PM EDT
Nautical Twilight 5:59 AM EDT 8:36 PM EDT
Astronomical Twilight 5:28 AM EDT 9:07 PM EDT
Moon 9:47 PM EDT (9/4) 10:46 AM EDT (9/4)
Length of Visible Light 13h 36m
Length of Day
12h 45m
Waning Gibbous, 84% of the Moon is Illuminated
Sep 4
Waning Gibbous
Sep 8
Last Quarter
Sep 15
New
Sep 22
First Quarter
Sep 29
Full

Hourly Weather History & Observations

Time (EDT) Temp. Heat Index Dew Point Humidity Pressure Visibility Wind Dir Wind Speed Gust Speed Precip Events Conditions
12:15 AM 73.4 °F - 71.6 °F 94% 30.03 in 7.0 mi ESE 3.5 mph - N/A   Clear
12:35 AM 73.4 °F - 71.6 °F 94% 30.03 in 8.0 mi SE 3.5 mph - N/A   Clear
12:55 AM 73.4 °F - 71.6 °F 94% 30.02 in 8.0 mi SSE 4.6 mph - N/A   Clear
1:15 AM 73.4 °F - 71.6 °F 94% 30.03 in 7.0 mi SSE 4.6 mph - N/A   Clear
1:35 AM 73.4 °F - 71.6 °F 94% 30.02 in 8.0 mi South 4.6 mph - N/A   Clear
1:55 AM 73.4 °F - 71.6 °F 94% 30.02 in 8.0 mi South 5.8 mph - N/A   Clear
2:15 AM 73.4 °F - 71.6 °F 94% 30.02 in 7.0 mi SSE 6.9 mph - N/A   Clear
2:35 AM 73.4 °F - 71.6 °F 94% 30.02 in 7.0 mi SSE 4.6 mph - N/A   Clear
2:55 AM 73.4 °F - 69.8 °F 88% 30.02 in 7.0 mi South 5.8 mph - N/A   Clear
3:15 AM 73.4 °F - 71.6 °F 94% 30.01 in 6.0 mi South 5.8 mph - N/A   Clear
3:35 AM 73.4 °F - 69.8 °F 88% 30.01 in 6.0 mi South 4.6 mph - N/A   Clear
3:55 AM 73.4 °F - 69.8 °F 88% 30.01 in 5.0 mi South 4.6 mph - N/A   Clear
4:15 AM 73.4 °F - 69.8 °F 88% 30.01 in 5.0 mi SSE 4.6 mph - N/A   Clear
4:35 AM 73.4 °F - 69.8 °F 88% 30.01 in 5.0 mi Calm Calm - N/A   Scattered Clouds
4:55 AM 73.4 °F - 71.6 °F 94% 30.00 in 5.0 mi South 4.6 mph - N/A   Mostly Cloudy
5:15 AM 73.4 °F - 71.6 °F 94% 30.00 in 5.0 mi SSE 4.6 mph - N/A   Mostly Cloudy
5:35 AM 73.4 °F - 71.6 °F 94% 30.01 in 5.0 mi South 4.6 mph - N/A   Scattered Clouds
5:55 AM 73.4 °F - 69.8 °F 88% 30.01 in 7.0 mi SSE 4.6 mph - N/A   Scattered Clouds
6:15 AM 73.4 °F - 69.8 °F 88% 30.02 in 8.0 mi SSE 5.8 mph - N/A   Scattered Clouds
6:35 AM 73.4 °F - 71.6 °F 94% 30.02 in 9.0 mi SSE 4.6 mph - N/A   Mostly Cloudy
6:55 AM 73.4 °F - 71.6 °F 94% 30.02 in 7.0 mi SSE 4.6 mph - N/A   Mostly Cloudy
7:15 AM 73.4 °F - 69.8 °F 88% 30.03 in 6.0 mi SSE 3.5 mph - N/A   Partly Cloudy
7:35 AM 73.4 °F - 69.8 °F 88% 30.03 in 6.0 mi SSE 3.5 mph - N/A   Clear
7:55 AM 73.4 °F - 71.6 °F 94% 30.03 in 8.0 mi South 3.5 mph - N/A   Clear
8:15 AM 75.2 °F - 71.6 °F 89% 30.03 in 10.0 mi SSE 6.9 mph - N/A   Clear
8:35 AM 75.2 °F - 71.6 °F 89% 30.03 in 10.0 mi South 6.9 mph - N/A   Clear
8:55 AM 77.0 °F - 73.4 °F 89% 30.03 in 10.0 mi South 10.4 mph - N/A   Clear
9:15 AM 78.8 °F - 73.4 °F 83% 30.03 in 10.0 mi SSW 10.4 mph - N/A   Scattered Clouds
9:35 AM 78.8 °F - 71.6 °F 78% 30.03 in 10.0 mi SSW 11.5 mph 17.3 mph N/A   Mostly Cloudy
9:55 AM 80.6 °F 85.4 °F 73.4 °F 79% 30.03 in 10.0 mi South 9.2 mph - N/A   Overcast
10:15 AM 80.6 °F 85.4 °F 73.4 °F 79% 30.03 in 10.0 mi South 8.1 mph - N/A   Mostly Cloudy
10:35 AM 80.6 °F 84.6 °F 71.6 °F 74% 30.03 in 10.0 mi South 9.2 mph - N/A   Partly Cloudy
10:55 AM 82.4 °F 87.2 °F 71.6 °F 70% 30.03 in 10.0 mi South 8.1 mph - N/A   Mostly Cloudy
11:15 AM 82.4 °F 87.2 °F 71.6 °F 70% 30.02 in 10.0 mi South 11.5 mph 17.3 mph N/A   Scattered Clouds
11:35 AM 84.2 °F 89.6 °F 71.6 °F 66% 30.02 in 10.0 mi SSE 8.1 mph - N/A   Scattered Clouds
11:55 AM 84.2 °F 89.6 °F 71.6 °F 66% 30.02 in 10.0 mi South 9.2 mph - N/A   Mostly Cloudy
12:15 PM 84.2 °F 89.6 °F 71.6 °F 66% 30.02 in 10.0 mi SSW 6.9 mph - N/A   Mostly Cloudy
12:35 PM 84.2 °F 89.6 °F 71.6 °F 66% 30.01 in 10.0 mi South 9.2 mph - N/A   Mostly Cloudy
12:55 PM 84.2 °F 89.6 °F 71.6 °F 66% 30.01 in 10.0 mi SSE 10.4 mph - N/A   Mostly Cloudy
1:15 PM 84.2 °F 89.6 °F 71.6 °F 66% 30.00 in 10.0 mi South 8.1 mph - N/A   Partly Cloudy
1:35 PM 86.0 °F 91.8 °F 71.6 °F 62% 30.00 in 10.0 mi SSE 8.1 mph - N/A   Partly Cloudy
1:55 PM 86.0 °F 91.8 °F 71.6 °F 62% 29.99 in 10.0 mi SSE 11.5 mph - N/A   Scattered Clouds
2:15 PM 87.8 °F 93.8 °F 71.6 °F 58% 29.98 in 10.0 mi SSE 15.0 mph - N/A   Partly Cloudy
2:35 PM 87.8 °F 93.8 °F 71.6 °F 58% 29.97 in 10.0 mi SE 9.2 mph 16.1 mph N/A   Scattered Clouds
2:55 PM 87.8 °F 93.8 °F 71.6 °F 58% 29.96 in 10.0 mi SE 11.5 mph - N/A   Mostly Cloudy
3:15 PM 87.8 °F 93.8 °F 71.6 °F 58% 29.95 in 10.0 mi SSE 11.5 mph - N/A   Partly Cloudy
3:35 PM 87.8 °F 92.6 °F 69.8 °F 55% 29.95 in 10.0 mi South 10.4 mph - N/A   Partly Cloudy
3:55 PM 87.8 °F 93.8 °F 71.6 °F 58% 29.94 in 10.0 mi South 12.7 mph 18.4 mph N/A   Partly Cloudy
4:15 PM 87.8 °F 92.6 °F 69.8 °F 55% 29.94 in 10.0 mi SE 12.7 mph 18.4 mph N/A   Clear
4:35 PM 87.8 °F 92.6 °F 69.8 °F 55% 29.94 in 10.0 mi SSE 11.5 mph - N/A   Scattered Clouds
4:55 PM 86.0 °F 90.4 °F 69.8 °F 58% 29.93 in 10.0 mi SSE 12.7 mph - N/A   Scattered Clouds
5:15 PM 84.2 °F 88.4 °F 69.8 °F 62% 29.93 in 10.0 mi South 11.5 mph - N/A   Partly Cloudy
5:35 PM 84.2 °F 89.6 °F 71.6 °F 66% 29.94 in 10.0 mi WSW 8.1 mph - N/A   Partly Cloudy
5:55 PM 82.4 °F 87.2 °F 71.6 °F 70% 29.94 in 10.0 mi SW 5.8 mph - N/A   Clear
6:15 PM 82.4 °F 87.2 °F 71.6 °F 70% 29.95 in 10.0 mi SW 6.9 mph - N/A   Clear
6:35 PM 80.6 °F 84.6 °F 71.6 °F 74% 29.95 in 10.0 mi SSW 4.6 mph - N/A   Clear
6:55 PM 80.6 °F 84.6 °F 71.6 °F 74% 29.94 in 10.0 mi SW 3.5 mph - N/A   Clear
7:15 PM 80.6 °F 84.6 °F 71.6 °F 74% 29.95 in 10.0 mi SSW 5.8 mph - N/A   Clear
7:35 PM 78.8 °F - 71.6 °F 78% 29.95 in 10.0 mi SW 4.6 mph - N/A   Partly Cloudy
7:55 PM 78.8 °F - 71.6 °F 78% 29.95 in 10.0 mi Calm Calm - N/A   Clear
8:15 PM 78.8 °F - 71.6 °F 78% 29.96 in 10.0 mi Calm Calm - N/A   Clear
8:35 PM 77.0 °F - 71.6 °F 83% 29.96 in 10.0 mi SSW 3.5 mph - N/A   Partly Cloudy
8:55 PM 77.0 °F - 73.4 °F 89% 29.97 in 10.0 mi South 3.5 mph - N/A   Scattered Clouds
9:15 PM 77.0 °F - 73.4 °F 89% 29.98 in 10.0 mi SSW 4.6 mph - N/A   Mostly Cloudy
9:35 PM 77.0 °F - 71.6 °F 83% 29.98 in 10.0 mi South 4.6 mph - N/A   Scattered Clouds
9:55 PM 77.0 °F - 71.6 °F 83% 29.98 in 10.0 mi SSW 4.6 mph - N/A   Mostly Cloudy
10:15 PM 77.0 °F - 71.6 °F 83% 29.98 in 10.0 mi SSW 3.5 mph - N/A   Scattered Clouds
10:35 PM 75.2 °F - 71.6 °F 89% 29.98 in 10.0 mi SSW 3.5 mph - N/A   Scattered Clouds
10:55 PM 75.2 °F - 71.6 °F 89% 29.98 in 10.0 mi SSW 4.6 mph - N/A   Mostly Cloudy
11:15 PM 75.2 °F - 71.6 °F 89% 29.97 in 10.0 mi South 5.8 mph - N/A   Partly Cloudy
11:35 PM 75.2 °F - 71.6 °F 89% 29.97 in 10.0 mi South 6.9 mph - N/A   Clear
11:55 PM 75.2 °F - 71.6 °F 89% 29.97 in 10.0 mi South 6.9 mph - N/A   Clear